| time (UTC) | temp C | wind direction | speed KPH | gust KPH | rain 1hr cm | rain 24hr cm | rain mn cm | humidity % | barometer mb |
| 20260902142003 | 18 | 94 | 3.2 | 4.8 | 0.00 | 1.17 | 1.17 | 99 | 1017.1 |
| 20260902141003 | 18 | 159 | 1.6 | 9.7 | 0.03 | 1.17 | 1.17 | 99 | 1018.1 |
| 20260902140003 | 18 | 8 | 3.2 | 9.7 | 0.05 | 1.17 | 1.17 | 99 | 1018.3 |
| 20260902135004 | 18 | 305 | 3.2 | 8.0 | 0.05 | 1.17 | 1.17 | 99 | 1018.4 |
| 20260902134003 | 18 | 301 | 3.2 | 4.8 | 0.05 | 1.17 | 1.17 | 99 | 1018.3 |
| 20260902133003 | 18 | 146 | 3.2 | 4.8 | 0.05 | 1.17 | 1.17 | 99 | 1017.6 |
| 20260902132004 | 18 | 133 | 1.6 | 8.0 | 0.03 | 1.17 | 1.17 | 99 | 1017.8 |
| 20260902131003 | 18 | 150 | 1.6 | 4.8 | 0.03 | 1.17 | 1.17 | 99 | 1017.4 |
| 20260902130003 | 18 | 302 | 1.6 | 4.8 | 0.00 | 1.14 | 1.14 | 99 | 1018.0 |
| 20260902125003 | 18 | 294 | 3.2 | 4.8 | 0.00 | 1.14 | 1.14 | 99 | 1017.3 |
| 20260902124003 | 18 | 295 | 3.2 | 4.8 | 0.00 | 1.14 | 1.14 | 99 | 1016.7 |
| 20260902122002 | 18 | 113 | 3.2 | 4.8 | 0.00 | 1.14 | 1.14 | 99 | 1016.9 |
| 20260902121003 | 18 | 144 | 1.6 | 4.8 | 0.00 | 1.14 | 1.14 | 99 | 1017.1 |
| 20260902120003 | 18 | 181 | 1.6 | 4.8 | 0.00 | 1.14 | 1.14 | 99 | 1017.0 |
| 20260902115003 | 18 | 14 | 1.6 | 4.8 | 0.00 | 1.14 | 1.14 | 99 | 1017.2 |
| 20260902113004 | 18 | 107 | 3.2 | 4.8 | 0.05 | 1.14 | 1.14 | 99 | 1017.3 |
| 20260902110005 | 18 | 81 | 3.2 | 8.0 | 0.91 | 1.12 | 1.12 | 99 | 1017.9 |
| 20260902105003 | 18 | 174 | 3.2 | 8.0 | 0.91 | 1.12 | 1.12 | 99 | 1018.6 |
| 20260902104003 | 18 | 67 | 3.2 | 4.8 | 0.94 | 1.12 | 1.12 | 99 | 1019.2 |
| 20260902103003 | 18 | 113 | 3.2 | 11.3 | 1.09 | 1.09 | 1.09 | 98 | 1019.6 |
| 20260902102003 | 18 | 14 | 8.0 | 32.2 | 0.99 | 1.02 | 1.02 | 97 | 1019.0 |
| 20260902101004 | 20 | 289 | 22.5 | 48.3 | 0.30 | 0.33 | 0.33 | 93 | 1021.3 |
| 20260902095003 | 22 | 353 | 9.7 | 24.1 | 0.18 | 0.20 | 0.20 | 98 | 1016.5 |
| 20260902094003 | 22 | 320 | 3.2 | 9.7 | 0.18 | 0.20 | 0.20 | 97 | 1015.4 |
| 20260902093003 | 22 | 84 | 1.6 | 4.8 | 0.00 | 0.03 | 0.03 | 96 | 1015.1 |
| 20260902092003 | 23 | 82 | 3.2 | 4.8 | 0.00 | 0.03 | 0.03 | 96 | 1015.3 |
| 20260902091004 | 23 | 76 | 3.2 | 4.8 | 0.03 | 0.03 | 0.03 | 95 | 1015.9 |
| 20260902090004 | 23 | 90 | 3.2 | 8.0 | 0.03 | 0.03 | 0.03 | 94 | 1016.6 |
| 20260902085004 | 23 | 183 | 1.6 | 3.2 | 0.03 | 0.03 | 0.03 | 94 | 1016.8 |
| 20260902084003 | 23 | 224 | 1.6 | 3.2 | 0.03 | 0.03 | 0.03 | 93 | 1016.6 |
| 20260902083003 | 23 | 325 | 3.2 | 8.0 | 0.03 | 0.03 | 0.03 | 92 | 1016.4 |
| 20260902082003 | 23 | 280 | 1.6 | 4.8 | 0.00 | 0.00 | 0.00 | 89 | 1016.1 |
| 20260902080003 | 24 | 117 | 1.6 | 4.8 | 0.00 | 0.00 | 0.00 | 85 | 1016.1 |
| 20260902075003 | 23 | 186 | 1.6 | 3.2 | 0.00 | 0.00 | 0.00 | 86 | 1015.9 |
| 20260902074004 | 23 | 113 | 3.2 | 8.0 | 0.00 | 0.00 | 0.00 | 86 | 1016.2 |
| 20260902073003 | 24 | 160 | 3.2 | 8.0 | 0.00 | 0.00 | 0.00 | 86 | 1016.3 |
| 20260902072003 | 23 | 128 | 1.6 | 3.2 | 0.00 | 0.00 | 0.00 | 85 | 1015.6 |
| 20260902071004 | 23 | 96 | 0.0 | 1.6 | 0.00 | 0.00 | 0.00 | 85 | 1015.9 |
| 20260902070004 | 23 | 153 | 0.0 | 1.6 | 0.00 | 0.00 | 0.00 | 86 | 1016.1 |
| 20260902065003 | 24 | 337 | 0.0 | 3.2 | 0.00 | 0.00 | 0.00 | 85 | 1015.9 |
| 20260902064003 | 24 | 33 | 0.0 | 1.6 | 0.00 | 0.00 | 0.00 | 83 | 1015.8 |
| 20260902063003 | 25 | 65 | 0.0 | 3.2 | 0.00 | 0.00 | 0.00 | 81 | 1015.8 |
| 20260902062003 | 25 | 144 | 0.0 | 3.2 | 0.00 | 0.00 | 0.00 | 81 | 1016.2 |
| 20260902060003 | 25 | 89 | 0.0 | 1.6 | 0.00 | 0.00 | 0.00 | 80 | 1016.5 |
| 20260902055003 | 25 | 77 | 0.0 | 3.2 | 0.00 | 0.00 | 0.00 | 80 | 1016.1 |
| 20260902054004 | 25 | 302 | 1.6 | 4.8 | 0.00 | 0.00 | 0.00 | 79 | 1016.2 |
| 20260902053004 | 25 | 189 | 1.6 | 3.2 | 0.00 | 0.00 | 0.00 | 79 | 1016.0 |
| 20260902052004 | 26 | 231 | 1.6 | 4.8 | 0.00 | 0.00 | 0.00 | 78 | 1016.0 |
| 20260902050005 | 26 | 274 | 1.6 | 3.2 | 0.00 | 0.00 | 0.00 | 77 | 1015.7 |
| 20260902045003 | 26 | 247 | 3.2 | 4.8 | 0.00 | 0.00 | 0.00 | 77 | 1015.7 |
| 20260902044003 | 27 | 225 | 1.6 | 8.0 | 0.00 | 0.00 | 0.00 | 76 | 1015.8 |
| 20260902043003 | 27 | 246 | 4.8 | 11.3 | 0.00 | 0.00 | 0.00 | 76 | 1015.9 |
| 20260902042003 | 27 | 212 | 3.2 | 9.7 | 0.00 | 0.00 | 0.00 | 77 | 1015.7 |
| 20260902040003 | 27 | 255 | 3.2 | 9.7 | 0.00 | 0.00 | 0.00 | 77 | 1015.8 |
| 20260902035003 | 27 | 221 | 4.8 | 9.7 | 0.00 | 0.00 | 0.00 | 79 | 1015.9 |
| 20260902034003 | 27 | 258 | 4.8 | 11.3 | 0.00 | 0.00 | 0.00 | 81 | 1015.8 |
| 20260902033004 | 27 | 228 | 4.8 | 12.9 | 0.00 | 0.00 | 0.00 | 81 | 1015.9 |
| 20260902032003 | 27 | 225 | 6.4 | 11.3 | 0.00 | 0.00 | 0.00 | 82 | 1015.7 |
| 20260902031003 | 27 | 212 | 4.8 | 9.7 | 0.00 | 0.00 | 0.00 | 82 | 1015.3 |
| 20260902025003 | 27 | 206 | 4.8 | 9.7 | 0.00 | 0.00 | 0.00 | 84 | 1015.4 |
| 20260902023003 | 27 | 191 | 3.2 | 8.0 | 0.00 | 0.00 | 0.00 | 83 | 1015.5 |
| 20260902022003 | 27 | 194 | 3.2 | 8.0 | 0.00 | 0.00 | 0.00 | 82 | 1015.3 |
| 20260902021003 | 28 | 202 | 4.8 | 11.3 | 0.00 | 0.00 | 0.00 | 81 | 1015.4 |
| 20260902020003 | 28 | 205 | 6.4 | 11.3 | 0.00 | 0.00 | 0.00 | 80 | 1015.4 |
| 20260902015004 | 28 | 196 | 3.2 | 8.0 | 0.00 | 0.00 | 0.00 | 80 | 1015.3 |
| 20260902014003 | 28 | 219 | 3.2 | 8.0 | 0.00 | 0.00 | 0.00 | 79 | 1015.1 |
| 20260902013004 | 28 | 219 | 3.2 | 8.0 | 0.00 | 0.00 | 0.00 | 80 | 1015.4 |
| 20260902012004 | 29 | 195 | 1.6 | 8.0 | 0.00 | 0.00 | 0.00 | 79 | 1015.2 |
| 20260902011004 | 29 | 214 | 3.2 | 8.0 | 0.00 | 0.00 | 0.00 | 78 | 1015.0 |
| 20260902010002 | 29 | 233 | 1.6 | 4.8 | 0.00 | 0.00 | 0.00 | 78 | 1014.8 |
| 20260902005003 | 29 | 227 | 1.6 | 8.0 | 0.00 | 0.00 | 0.00 | 78 | 1014.7 |
| 20260902004003 | 29 | 215 | 1.6 | 8.0 | 0.00 | 0.00 | 0.00 | 77 | 1014.9 |
| 20260902003003 | 30 | 277 | 3.2 | 4.8 | 0.00 | 0.00 | 0.00 | 76 | 1014.7 |
| 20260902001003 | 30 | 188 | 3.2 | 9.7 | 0.00 | 0.00 | 0.00 | 75 | 1014.4 |
| 20260901235003 | 30 | 222 | 4.8 | 12.9 | 0.00 | 0.00 | 0.00 | 72 | 1014.5 |
| 20260901233003 | 31 | 206 | 6.4 | 11.3 | 0.00 | 0.00 | 0.00 | 68 | 1014.4 |
| 20260901231003 | 32 | 227 | 8.0 | 14.5 | 0.00 | 0.00 | 0.00 | 65 | 1014.5 |
| 20260901230004 | 32 | 233 | 6.4 | 19.3 | 0.00 | 0.00 | 0.00 | 64 | 1014.8 |
| 20260901224003 | 32 | 201 | 8.0 | 14.5 | 0.00 | 0.00 | 0.00 | 66 | 1014.7 |
| 20260901223004 | 32 | 199 | 4.8 | 16.1 | 0.00 | 0.00 | 0.00 | 66 | 1014.8 |
| 20260901222003 | 32 | 183 | 4.8 | 11.3 | 0.00 | 0.00 | 0.00 | 66 | 1014.8 |
| 20260901221003 | 32 | 210 | 4.8 | 14.5 | 0.00 | 0.00 | 0.00 | 64 | 1014.8 |
| 20260901220003 | 32 | 193 | 9.7 | 20.9 | 0.00 | 0.00 | 0.00 | 63 | 1014.5 |
| 20260901215003 | 33 | 273 | 8.0 | 14.5 | 0.00 | 0.00 | 0.00 | 61 | 1014.8 |
| 20260901214003 | 33 | 245 | 6.4 | 12.9 | 0.00 | 0.00 | 0.00 | 61 | 1014.9 |
| 20260901212004 | 33 | 213 | 3.2 | 11.3 | 0.00 | 0.00 | 0.00 | 63 | 1014.8 |
| 20260901211003 | 32 | 193 | 1.6 | 11.3 | 0.00 | 0.00 | 0.00 | 67 | 1015.0 |
| 20260901210003 | 32 | 229 | 4.8 | 12.9 | 0.00 | 0.00 | 0.00 | 64 | 1015.0 |
| 20260901205003 | 32 | 220 | 4.8 | 12.9 | 0.00 | 0.00 | 0.00 | 64 | 1015.1 |
| 20260901204003 | 32 | 215 | 8.0 | 14.5 | 0.00 | 0.00 | 0.00 | 63 | 1015.0 |
| 20260901203003 | 32 | 226 | 4.8 | 12.9 | 0.00 | 0.00 | 0.00 | 64 | 1014.9 |
| 20260901201003 | 32 | 262 | 8.0 | 14.5 | 0.00 | 0.00 | 0.00 | 66 | 1015.4 |
| 20260901200004 | 32 | 222 | 8.0 | 11.3 | 0.00 | 0.00 | 0.00 | 65 | 1015.3 |
| 20260901195003 | 32 | 200 | 4.8 | 9.7 | 0.00 | 0.00 | 0.00 | 68 | 1015.3 |
| 20260901193004 | 32 | 191 | 4.8 | 14.5 | 0.00 | 0.00 | 0.00 | 66 | 1015.7 |
| 20260901192003 | 32 | 259 | 8.0 | 14.5 | 0.00 | 0.00 | 0.00 | 66 | 1015.6 |
| 20260901191004 | 32 | 230 | 6.4 | 12.9 | 0.00 | 0.00 | 0.00 | 65 | 1015.8 |
| 20260901190003 | 32 | 307 | 3.2 | 11.3 | 0.00 | 0.00 | 0.00 | 68 | 1015.8 |
| 20260901185003 | 31 | 269 | 6.4 | 12.9 | 0.00 | 0.00 | 0.00 | 68 | 1015.9 |
| 20260901184004 | 32 | 199 | 4.8 | 9.7 | 0.00 | 0.00 | 0.00 | 68 | 1015.8 |
| 20260901183004 | 31 | 272 | 6.4 | 11.3 | 0.00 | 0.00 | 0.00 | 73 | 1015.9 |
| 20260901182004 | 31 | 40 | 1.6 | 12.9 | 0.00 | 0.00 | 0.00 | 74 | 1015.9 |
| 20260901181003 | 30 | 290 | 4.8 | 14.5 | 0.00 | 0.00 | 0.00 | 76 | 1016.1 |
| 20260901180003 | 30 | 282 | 9.7 | 14.5 | 0.00 | 0.00 | 0.00 | 80 | 1016.0 |
| 20260901174004 | 30 | 343 | 8.0 | 14.5 | 0.00 | 0.00 | 0.00 | 79 | 1016.5 |
| 20260901172003 | 28 | 310 | 4.8 | 11.3 | 0.00 | 0.00 | 0.00 | 84 | 1016.8 |
| 20260901171004 | 28 | 281 | 8.0 | 16.1 | 0.00 | 0.00 | 0.00 | 84 | 1016.7 |
| 20260901170003 | 30 | 296 | 8.0 | 12.9 | 0.00 | 0.00 | 0.00 | 81 | 1016.7 |
| 20260901165004 | 29 | 301 | 1.6 | 9.7 | 0.00 | 0.00 | 0.00 | 83 | 1016.9 |
| 20260901164003 | 29 | 6 | 1.6 | 11.3 | 0.00 | 0.00 | 0.00 | 82 | 1016.9 |
| 20260901162004 | 28 | 301 | 3.2 | 14.5 | 0.00 | 0.00 | 0.00 | 85 | 1017.2 |
| 20260901161004 | 28 | 304 | 3.2 | 11.3 | 0.00 | 0.00 | 0.00 | 85 | 1017.0 |
| 20260901160004 | 27 | 194 | 4.8 | 9.7 | 0.00 | 0.00 | 0.00 | 87 | 1017.2 |
| 20260901155003 | 27 | 295 | 3.2 | 11.3 | 0.00 | 0.00 | 0.00 | 88 | 1017.3 |
| 20260901153004 | 26 | 296 | 3.2 | 8.0 | 0.00 | 0.00 | 0.00 | 90 | 1017.1 |
| 20260901151003 | 26 | 254 | 3.2 | 9.7 | 0.00 | 0.00 | 0.00 | 90 | 1017.0 |
| 20260901150003 | 26 | 276 | 1.6 | 8.0 | 0.00 | 0.00 | 0.00 | 92 | 1016.9 |
| 20260901145003 | 26 | 240 | 3.2 | 8.0 | 0.00 | 0.00 | 0.00 | 92 | 1016.9 |
| 20260901144003 | 25 | 300 | 4.8 | 9.7 | 0.00 | 0.00 | 0.00 | 94 | 1017.1 |
| 20260901143003 | 25 | 233 | 1.6 | 8.0 | 0.00 | 0.00 | 0.00 | 95 | 1017.0 |